Location: Kalberh�ni
(46.4610°N, 7.2453°E)
Time: 05:41:23
(UTC+00:00)

Cosmos 1802 Rocket - Pass Details

Date: 26 October 2021
Orbit: 955 x 1010 km, 82.9° (Epoch: 05 December)

Event Time Altitude Azimuth Distance (km) Brightness Sun altitude
Rises 17:39:40 0° 144° (SE) 3,622 6.7 -13.4°
Reaches altitude 10° 17:42:42 10° 130° (SE) 2,681 5.9 -13.9°
Maximum altitude 17:47:12 22° 82° (E) 1,967 5.0 -14.7°
Drops below altitude 10° 17:51:43 10° 34° (NE) 2,702 6.0 -15.5°
Sets 17:54:47 0° 20° (NNE) 3,659 6.8 -16.0°
